Other Public Products
Issued by NWS Charleston, SC

Current Version | Previous Version | Graphics & Text | Print | Product List | Glossary On
Versions: 1 2 3 4 5 6 7 8 9 10 11 12 13 14 15 16 17 18 19 20 21 22 23 24 25 26 27 28 29 30 31 32 33 34 35 36 37 38 39 40 41 42 43 44 45 46 47 48 49 50
000
FPUS82 KCHS 120311
OPUCHS

TEST...KCHS/KSAV Gateway Observations...TEST
National Weather Service Charleston SC
1000 PM EST MON DEC 11 2017

NOTE: "fair" indicates few or no clouds below 12,000 feet with no
significant weather and/or obstructions to visibility.

SCZ050-WAZ558-NCZ071-TXZ119-213-PAZ071-DCZ001-FLZ074-172-MI076-
NYZ176-178-MAZ016-IL014-TNZ027-NJZ106-GAZ044-MD014-120400-

...Gateway Observations for Charleston International...

CITY           SKY/WX    TMP DP  RH WIND       PRES   REMARKS
Chas Airport   CLEAR     42  40  92 SW5       30.04F
Seattle        CLEAR     43  32  65 S6        30.39R
Charlotte      CLEAR     40  32  73 S6        29.93F WCI  36
Dallas DFW     PTCLDY    64  18  17 NW13      30.14R
Dallas Love    PTCLDY    60  22  23 NW3       30.15R
Philladelphia  CLOUDY    36  24  62 SE7       29.98F WCI  30
Wash National  MOCLDY    41  32  70 S14       29.93F
Baltimore      CLOUDY    40  31  70 SE8       29.91F WCI  34
Miami          CLEAR     58  34  40 N5        30.19R
Detroit        LGT SNOW  31  30  96 CALM      29.70F VSB 3/4
Newark         CLOUDY    38  23  55 S5        29.99F WCI  34
Laguardia      MOCLDY    40  21  46 S7        29.98F WCI  35
J F K          CLOUDY    37  25  61 SW6       30.00F WCI  32
Boston Logan   CLOUDY    35  19  52 N5        30.02F WCI  31
Ft. Lauderdale PTCLDY    54  41  61 NW6       30.18R
Chicago O`Hare CLOUDY    32  27  81 NW21G26   29.82R WCI  20
Chicago Midway CLOUDY    33  29  85 NW22      29.82R WCI  21
Houston Bush   MOCLDY    60  38  43 SW5       30.19S
Houston Hobby  MOCLDY    56  40  55 SW7       30.19S
Nashville      CLOUDY    54  30  40 SW10      29.87R
Atlanta        PTCLDY    50  36  58 W9        29.99S

$$

GAZ044-118-TXZ119-213-NCZ071-DCZ001-MDZ014-506-PAZ021-071-NJZ106-
NYZ176-178-MAZ106-OHZ011-021-055-MIZ076-KYZ091-ILZ014-INZ047-
MNZ060-ONZ431-120400-

...Gateway Observations for Savannah International...

CITY           SKY/WX    TMP DP  RH WIND       PRES   REMARKS
Savannah Arpt  CLEAR     47  38  71 SW7       30.07F
Atlanta        PTCLDY    50  36  58 W9        29.99S
Charlotte      CLEAR     40  32  73 S6        29.93F WCI  36
Dallas DFW     PTCLDY    64  18  17 NW13      30.14R
Houston Bush   MOCLDY    60  38  43 SW5       30.19S
Wash National  MOCLDY    41  32  70 S14       29.93F
Wash Dulles    MOCLDY    40  30  67 S8        29.89F WCI  34
Baltimore      CLOUDY    40  31  70 SE8       29.91F WCI  34
Philadelphia   CLOUDY    36  24  62 SE7       29.98F WCI  30
Newark         CLOUDY    38  23  55 S5        29.99F WCI  34
Laguardia      MOCLDY    40  21  46 S7        29.98F WCI  35
J F K          CLOUDY    37  25  61 SW6       30.00F WCI  32
Boston         CLOUDY    35  19  52 N5        30.02F WCI  31
Pittsburg      CLOUDY    36  22  56 CALM      29.71F
Akron          CLOUDY    33  22  63 SE7       29.67F WCI  27
Cleveland      CLOUDY    34  25  69 S6        29.70F WCI  29
Cincinnati     CLEAR     45  28  51 W16G24    29.70R
Columbus       CLEAR     34  26  73 SE7       29.65F WCI  27
Detroit        LGT SNOW  31  30  96 CALM      29.70F VSB 3/4
Chicago O`Hare CLOUDY    32  27  81 NW21G26   29.82R WCI  20
Minneapolis    CLEAR     21  12  68 N17       30.19R WCI   7
Indianapolis   CLOUDY    41  27  57 W18G26    29.73R
Toronto Canada CLOUDY    27  23  86 NE3       29.75F

$$




USA.gov is the U.S. government's official web portal to all federal, state and local government web resources and services.